Location: El Bakhil
(32.7726°N, 5.5387°W)
Time: 19:15:28
(UTC+00:00)

Envisat - Pass Details

Date: 08 December 2021
Orbit: 764 x 766 km, 98.2° (Epoch: 18 January)

Event Time Altitude Azimuth Distance (km) Brightness Sun altitude
Rises 04:46:33 0° 21° (NNE) 3,234 6.4 -29.9°
Reaches altitude 10° 04:48:59 10° 28° (NNE) 2,304 5.6 -29.4°
Maximum altitude 04:53:47 42° 99° (E) 1,079 4.1 -28.4°
Drops below altitude 10° 04:58:33 10° 170° (S) 2,290 5.7 -27.4°
Sets 05:00:57 0° 177° (S) 3,212 6.4 -26.9°
